Weather History for Bay City, TX

Change the Weather History Date:

Friday, December 6, 2013

  Actual Average (KLBX) Record (KLBX)
Temperature  
Mean Temperature 40 °F -  
Max Temperature 45 °F 63 °F 81 °F (1998)
Min Temperature 36 °F 47 °F 32 °F (1999)
Degree Days  
Heating Degree Days 24    
Moisture  
Dew Point 37 °F    
Average Humidity 89    
Maximum Humidity 98    
Minimum Humidity 80    
Precipitation  
Precipitation 0.00 in - - ()
Sea Level Pressure  
Sea Level Pressure 30.17 in    
Wind  
Wind Speed 15 mph (NNW)    
Max Wind Speed 21 mph    
Max Gust Speed 28 mph    
Visibility 8 miles    
Events Rain    
Averages and records for this station are not official NWS values.
T = Trace of Precipitation, MM = Missing Value Source: NWS Daily Summary

Daily Weather History Graph

Daily Weather History Graph

Search for Another Location

Airport:

Trip Planner

Search our weather history database for the weather conditions in past years. The results will help you decide how hot, cold, wet, or windy it might be!

Date:

Astronomy

Dec. 06, 2013 Rise Set
Actual Time 7:03 AM CST 5:25 PM CST
Civil Twilight 6:37 AM CST 5:51 PM CST
Nautical Twilight 6:08 AM CST 6:20 PM CST
Astronomical Twilight 5:39 AM CST 6:49 PM CST
Moon 10:20 AM CST (12/6) 9:46 PM CST (12/6)
Length of Visible Light 11h 13m
Length of Day
10h 22m
Waxing Crescent, 19% of the Moon is Illuminated
Dec 6
Waxing Crescent
Dec 9
First Quarter
Dec 17
Full
Dec 25
Last Quarter
Jan 1
New

Hourly Weather History & Observations

Time (CST) Temp. Windchill Dew Point Humidity Pressure Visibility Wind Dir Wind Speed Gust Speed Precip Events Conditions
12:15 AM 40.6 °F 32.0 °F 39.6 °F 96% 29.98 in 2.5 mi North 17.3 mph 24.2 mph N/A   Overcast
12:35 AM 40.5 °F 32.8 °F 39.6 °F 97% 29.99 in 3.0 mi North 13.8 mph 20.7 mph N/A   Overcast
12:55 AM 40.5 °F 33.2 °F 39.6 °F 97% 29.99 in 3.0 mi North 12.7 mph - N/A   Overcast
1:15 AM 39.9 °F 32.1 °F 39.4 °F 98% 29.97 in 3.0 mi North 13.8 mph - N/A   Overcast
1:35 AM 39.9 °F 32.5 °F 39.2 °F 97% 29.97 in 4.0 mi North 12.7 mph - N/A   Overcast
1:55 AM 40.1 °F 32.4 °F 39.4 °F 97% 29.97 in 4.0 mi North 13.8 mph 17.3 mph N/A   Overcast
5:35 AM 40.1 °F 33.2 °F 39.4 °F 97% 30.02 in 7.0 mi North 11.5 mph - N/A   Overcast
5:55 AM 40.3 °F 33.0 °F 39.4 °F 97% 30.02 in 10.0 mi NNW 12.7 mph 16.1 mph N/A   Overcast
6:15 AM 40.3 °F 33.4 °F 39.4 °F 97% 30.03 in 5.0 mi NNW 11.5 mph 20.7 mph N/A   Light Drizzle
6:35 AM 40.3 °F 33.4 °F 39.4 °F 97% 30.05 in 5.0 mi NNW 11.5 mph 20.7 mph N/A   Overcast
6:55 AM 40.1 °F 32.4 °F 39.2 °F 97% 30.06 in 5.0 mi NNW 13.8 mph 20.7 mph N/A   Overcast
7:15 AM 40.5 °F 34.1 °F 39.6 °F 97% 30.07 in 3.0 mi NNW 10.4 mph 16.1 mph N/A   Overcast
7:35 AM 40.3 °F 31.9 °F 39.4 °F 97% 30.07 in 5.0 mi NNW 16.1 mph - N/A Rain Light Rain
7:55 AM 40.1 °F 32.7 °F 39.2 °F 97% 30.08 in 7.0 mi NNW 12.7 mph 20.7 mph N/A   Overcast
8:15 AM 39.6 °F 31.7 °F 38.7 °F 97% 30.09 in 7.0 mi NNW 13.8 mph 21.9 mph N/A   Overcast
8:35 AM 39.6 °F 31.7 °F 38.5 °F 96% 30.11 in 10.0 mi NNW 13.8 mph - N/A   Overcast
8:55 AM 39.7 °F 31.9 °F 38.5 °F 95% 30.11 in 7.0 mi NNW 13.8 mph 25.3 mph N/A   Overcast
9:15 AM 39.7 °F 31.9 °F 38.3 °F 95% 30.13 in 10.0 mi NNW 13.8 mph 21.9 mph N/A   Overcast
9:35 AM 40.1 °F 32.0 °F 38.3 °F 93% 30.16 in 10.0 mi NNW 15.0 mph 20.7 mph N/A   Overcast
9:55 AM 40.1 °F 32.4 °F 38.3 °F 93% 30.15 in 7.0 mi NNW 13.8 mph - N/A   Overcast
10:15 AM 39.9 °F 32.1 °F 37.9 °F 93% 30.18 in 10.0 mi NNW 13.8 mph 23.0 mph N/A   Overcast
10:35 AM 40.1 °F 32.0 °F 37.8 °F 91% 30.18 in 7.0 mi NNW 15.0 mph 25.3 mph N/A   Overcast
10:55 AM 40.1 °F 30.7 °F 37.9 °F 92% 30.18 in 10.0 mi NNW 19.6 mph 25.3 mph N/A   Overcast
11:15 AM 40.3 °F 31.9 °F 38.1 °F 92% 30.19 in 10.0 mi NNW 16.1 mph 23.0 mph N/A   Overcast
11:35 AM 40.6 °F 31.7 °F 37.8 °F 89% 30.18 in 7.0 mi NNW 18.4 mph 24.2 mph N/A   Overcast
11:55 AM 40.1 °F 30.5 °F 37.9 °F 92% 30.18 in 5.0 mi NNW 20.7 mph 25.3 mph N/A   Light Drizzle
12:15 PM 40.1 °F 33.2 °F 38.3 °F 93% 30.17 in 10.0 mi North 11.5 mph 25.3 mph N/A   Overcast
12:35 PM 40.6 °F 31.7 °F 38.7 °F 93% 30.16 in 10.0 mi NNW 18.4 mph 26.5 mph N/A   Overcast
12:55 PM 41.4 °F 33.6 °F 38.8 °F 91% 30.16 in 10.0 mi North 15.0 mph 21.9 mph N/A   Overcast
1:15 PM 42.6 °F 34.0 °F 39.4 °F 88% 30.16 in 10.0 mi North 19.6 mph - N/A   Overcast
1:35 PM 43.9 °F 36.2 °F 39.4 °F 84% 30.15 in 10.0 mi North 17.3 mph 27.6 mph N/A   Overcast
1:55 PM 44.8 °F 37.1 °F 39.6 °F 82% 30.15 in 10.0 mi North 18.4 mph 23.0 mph N/A   Overcast
2:15 PM 45.3 °F 38.7 °F 39.6 °F 80% 30.15 in 10.0 mi North 15.0 mph - N/A   Overcast
2:35 PM 45.1 °F 37.3 °F 39.2 °F 80% 30.16 in 10.0 mi North 19.6 mph 25.3 mph N/A   Overcast
2:55 PM 44.2 °F 37.3 °F 38.7 °F 81% 30.16 in 10.0 mi North 15.0 mph 21.9 mph N/A   Overcast
3:15 PM 43.7 °F 36.9 °F 38.8 °F 83% 30.17 in 10.0 mi North 13.8 mph 20.7 mph N/A   Overcast
3:35 PM 43.9 °F 37.2 °F 39.0 °F 83% 30.17 in 10.0 mi NNW 13.8 mph 24.2 mph N/A   Overcast
3:55 PM 43.7 °F 36.3 °F 39.2 °F 84% 30.17 in 10.0 mi NNW 16.1 mph 21.9 mph N/A   Overcast
4:15 PM 43.7 °F 36.9 °F 39.0 °F 84% 30.18 in 10.0 mi North 13.8 mph 25.3 mph N/A   Overcast
4:35 PM 43.7 °F 36.0 °F 38.5 °F 82% 30.19 in 10.0 mi North 17.3 mph 24.2 mph N/A   Overcast
4:55 PM 43.7 °F 36.0 °F 38.3 °F 81% 30.20 in 10.0 mi North 17.3 mph 23.0 mph N/A   Overcast
5:35 PM 42.8 °F 34.8 °F 37.4 °F 81% 30.22 in 10.0 mi NNW 17.3 mph 27.6 mph N/A   Overcast
5:55 PM 42.6 °F 34.0 °F 37.4 °F 82% 30.22 in 10.0 mi NNW 19.6 mph 27.6 mph N/A   Overcast
6:15 PM 41.7 °F 33.1 °F 37.2 °F 84% 30.24 in 10.0 mi North 18.4 mph 26.5 mph N/A   Overcast
6:35 PM 41.4 °F 33.0 °F 36.9 °F 84% 30.25 in 10.0 mi NNW 17.3 mph 26.5 mph N/A   Overcast
6:55 PM 41.2 °F 33.4 °F 36.7 °F 84% 30.26 in 10.0 mi NNW 15.0 mph 25.3 mph N/A   Overcast
7:15 PM 40.6 °F 32.0 °F 36.3 °F 85% 30.27 in 10.0 mi NNW 17.3 mph 23.0 mph N/A   Overcast
7:35 PM 39.9 °F 31.8 °F 35.8 °F 85% 30.28 in 10.0 mi NNW 15.0 mph 24.2 mph N/A   Overcast
7:55 PM 39.6 °F 30.6 °F 35.6 °F 86% 30.29 in 10.0 mi North 17.3 mph - N/A   Overcast
8:15 PM 38.7 °F 30.1 °F 34.7 °F 86% 30.30 in 10.0 mi North 15.0 mph 25.3 mph N/A   Overcast
8:35 PM 38.3 °F 28.7 °F 34.3 °F 86% 30.31 in 10.0 mi NNW 18.4 mph 24.2 mph N/A   Overcast
8:55 PM 37.8 °F 28.3 °F 33.6 °F 85% 30.32 in 10.0 mi NNW 17.3 mph 24.2 mph N/A   Overcast
9:15 PM 37.4 °F 28.2 °F 33.3 °F 85% 30.32 in 10.0 mi North 16.1 mph 23.0 mph N/A   Overcast
9:35 PM 37.4 °F 28.2 °F 33.1 °F 84% 30.33 in 10.0 mi North 16.1 mph 24.2 mph N/A   Overcast
9:55 PM 37.0 °F 28.9 °F 32.9 °F 85% 30.33 in 10.0 mi North 12.7 mph 19.6 mph N/A   Overcast
10:15 PM 37.0 °F 28.1 °F 32.9 °F 85% 30.34 in 10.0 mi North 15.0 mph 20.7 mph N/A   Overcast
10:35 PM 36.9 °F 27.5 °F 32.5 °F 84% 30.35 in 10.0 mi North 16.1 mph 20.7 mph N/A   Overcast
10:55 PM 36.7 °F 28.0 °F 32.4 °F 84% 30.35 in 10.0 mi North 13.8 mph 19.6 mph N/A   Overcast
11:15 PM 36.9 °F 28.2 °F 32.4 °F 84% 30.35 in 10.0 mi North 13.8 mph 18.4 mph N/A   Overcast
11:35 PM 36.9 °F 29.6 °F 32.5 °F 84% 30.35 in 10.0 mi North 10.4 mph 18.4 mph N/A   Overcast
11:55 PM 36.9 °F 28.2 °F 32.5 °F 84% 30.34 in 10.0 mi North 13.8 mph 21.9 mph N/A   Overcast